| time (UTC) | temp F | wind direction | speed knots | gust knots | rain 1hr in | rain 24hr in | rain mn in | humidity % | barometer mb |
| 20260505093012 | 58 | 209 | 0.0 | 3.5 | 0.00 | 0.00 | 0.00 | 66 | 955.3 |
| 20260505090026 | 58 | 154 | 0.0 | 4.3 | 0.00 | 0.00 | 0.00 | 65 | 955.1 |
| 20260505084528 | 58 | 163 | 0.9 | 4.3 | 0.00 | 0.00 | 0.00 | 65 | 955.2 |
| 20260505083025 | 58 | 161 | 0.0 | 4.3 | 0.00 | 0.00 | 0.00 | 64 | 955.2 |
| 20260505081514 | 59 | 158 | 0.9 | 3.5 | 0.00 | 0.00 | 0.00 | 63 | 955.1 |
| 20260505080008 | 59 | 159 | 0.0 | 3.5 | 0.00 | 0.00 | 0.00 | 62 | 955.2 |
| 20260505074508 | 59 | 167 | 0.0 | 2.6 | 0.00 | 0.00 | 0.00 | 62 | 955.3 |
| 20260505073008 | 59 | 129 | 0.0 | 4.3 | 0.00 | 0.00 | 0.00 | 62 | 955.2 |
| 20260505071518 | 59 | 160 | 0.9 | 6.1 | 0.00 | 0.00 | 0.00 | 62 | 955.2 |
| 20260505070017 | 59 | 179 | 0.9 | 4.3 | 0.00 | 0.00 | 0.00 | 61 | 955.4 |
| 20260505064531 | 59 | 128 | 0.0 | 2.6 | 0.00 | 0.00 | 0.00 | 61 | 955.3 |
| 20260505063016 | 59 | 231 | 0.9 | 2.6 | 0.00 | 0.00 | 0.00 | 61 | 955.3 |
| 20260505061512 | 59 | 134 | 0.0 | 2.6 | 0.00 | 0.00 | 0.00 | 60 | 955.2 |
| 20260505060011 | 59 | 178 | 0.0 | 3.5 | 0.00 | 0.00 | 0.00 | 60 | 955.3 |
| 20260505054517 | 59 | 182 | 0.9 | 3.5 | 0.00 | 0.00 | 0.00 | 59 | 955.4 |
| 20260505053108 | 59 | 162 | 0.9 | 2.6 | 0.00 | 0.00 | 0.00 | 59 | 955.4 |
| 20260505040059 | 60 | 165 | 1.7 | 5.2 | 0.00 | 0.00 | 0.00 | 57 | 955.5 |
| 20260505034606 | 60 | 189 | 1.7 | 4.3 | 0.00 | 0.00 | 0.00 | 57 | 955.2 |
| 20260505033047 | 60 | 193 | 0.9 | 7.0 | 0.00 | 0.00 | 0.00 | 56 | 955.2 |
| 20260505030100 | 61 | 172 | 0.9 | 3.5 | 0.00 | 0.00 | 0.00 | 55 | 955.4 |
| 20260505024606 | 61 | 183 | 1.7 | 5.2 | 0.00 | 0.00 | 0.00 | 54 | 955.3 |
| 20260505023049 | 61 | 157 | 0.9 | 7.0 | 0.00 | 0.00 | 0.00 | 53 | 955.5 |
| 20260505020108 | 62 | 172 | 1.7 | 6.1 | 0.00 | 0.00 | 0.00 | 51 | 955.6 |
| 20260505014558 | 62 | 163 | 0.9 | 2.6 | 0.00 | 0.00 | 0.00 | 51 | 955.6 |
| 20260505013056 | 62 | 161 | 0.9 | 4.3 | 0.00 | 0.00 | 0.00 | 50 | 955.2 |
| 20260505010112 | 63 | 185 | 0.9 | 4.3 | 0.00 | 0.00 | 0.00 | 49 | 955.2 |
| 20260505004631 | 64 | 164 | 0.9 | 2.6 | 0.00 | 0.00 | 0.00 | 48 | 955.0 |
| 20260505003101 | 64 | 185 | 0.9 | 4.3 | 0.00 | 0.00 | 0.00 | 47 | 954.9 |
| 20260505000014 | 65 | 155 | 0.9 | 5.2 | 0.00 | 0.00 | 0.00 | 45 | 954.6 |
| 20260504234506 | 66 | 181 | 1.7 | 10.4 | 0.00 | 0.00 | 0.00 | 44 | 954.6 |
| 20260504233005 | 67 | 163 | 1.7 | 7.0 | 0.00 | 0.00 | 0.00 | 43 | 954.6 |
| 20260504230014 | 69 | 202 | 0.9 | 5.2 | 0.00 | 0.00 | 0.00 | 40 | 954.3 |
| 20260504224511 | 70 | 161 | 0.9 | 7.0 | 0.00 | 0.00 | 0.00 | 39 | 954.4 |
| 20260504223010 | 72 | 180 | 1.7 | 5.2 | 0.00 | 0.00 | 0.00 | 37 | 954.5 |
| 20260504220059 | 74 | 204 | 0.0 | 7.0 | 0.00 | 0.00 | 0.00 | 36 | 954.3 |
| 20260504214557 | 74 | 257 | 0.9 | 5.2 | 0.00 | 0.00 | 0.00 | 34 | 954.4 |
| 20260504213102 | 74 | 202 | 1.7 | 7.0 | 0.00 | 0.00 | 0.00 | 32 | 954.4 |
| 20260504210050 | 74 | 181 | 1.7 | 6.1 | 0.00 | 0.00 | 0.00 | 35 | 954.6 |
| 20260504204543 | 73 | 267 | 0.9 | 7.0 | 0.00 | 0.00 | 0.00 | 37 | 954.7 |
| 20260504203040 | 72 | 198 | 2.6 | 10.4 | 0.00 | 0.00 | 0.00 | 36 | 954.9 |
| 20260504200039 | 71 | 215 | 2.6 | 7.8 | 0.00 | 0.00 | 0.00 | 38 | 955.3 |
| 20260504194539 | 71 | 240 | 3.5 | 14.8 | 0.00 | 0.00 | 0.00 | 37 | 955.5 |
| 20260504193045 | 71 | 117 | 0.0 | 4.3 | 0.00 | 0.00 | 0.00 | 38 | 955.7 |
| 20260504190058 | 71 | 240 | 6.1 | 13.9 | 0.00 | 0.00 | 0.00 | 37 | 955.8 |
| 20260504184602 | 71 | 217 | 5.2 | 12.2 | 0.00 | 0.00 | 0.00 | 37 | 955.8 |
| 20260504183053 | 70 | 248 | 2.6 | 12.2 | 0.00 | 0.00 | 0.00 | 38 | 955.9 |
| 20260504180015 | 70 | 198 | 3.5 | 12.2 | 0.00 | 0.00 | 0.00 | 42 | 956.2 |
| 20260504174512 | 69 | 221 | 2.6 | 7.8 | 0.00 | 0.00 | 0.00 | 41 | 956.3 |
| 20260504173015 | 69 | 252 | 1.7 | 9.6 | 0.00 | 0.00 | 0.00 | 41 | 956.4 |